User: anonymous   Login
Location: Bednik
(45.3500°N, 16.3833°E)
Time: 11:40:33
(UTC+00:00)
Language:

Cosmos 1184 Rocket - Orbit

View from above orbital plane
View from above orbital plane
View from above satellite
View from above satellite

Ground track
Ground track

The orbit data is extracted from the following two-line orbital elements,

1 11822U 80044B   20304.88264131 +.00003618 +00000-0 +61500-4 0  9996
2 11822 081.2289 168.5622 0009705 311.5887 048.4528 15.51059948223803
Epoch (UTC): 30 October 2020 21:11:00
Eccentricity: 0.0009705
inclination: 81.2289°
perigee height: 407 km
apogee height: 420 km
right ascension of ascending node: 168.5622°
argument of perigee: 311.5887°
revolutions per day: 15.51059948
mean anomaly at epoch: 48.4528°
orbit number at epoch: 22380

The dashed part of the orbit path shows where the satellite is in the earth's shadow,  

DLR